EST,Max TemperatureF,Mean TemperatureF,Min TemperatureF,Max Dew PointF,MeanDew PointF,Min DewpointF,Max Humidity, Mean Humidity, Min Humidity, Max Sea Level PressureIn, Mean Sea Level PressureIn, Min Sea Level PressureIn, Max VisibilityMiles, Mean VisibilityMiles, Min VisibilityMiles, Max Wind SpeedMPH, Mean Wind SpeedMPH, Max Gust SpeedMPH,PrecipitationIn, CloudCover, Events, WindDirDegrees
2011-11-1,51,42,33,37,34,32,96,74,52,30.38,30.29,30.21,10,10,10,10,2,14,0.00,3,,160
2011-11-2,60,47,33,36,33,30,89,63,37,30.37,30.28,30.14,10,10,10,10,5,15,0.00,0,,160
2011-11-3,58,49,39,37,35,33,85,64,43,30.14,30.03,29.94,10,10,10,15,3,18,0.00,0,,354
2011-11-4,49,40,30,42,28,19,92,63,34,30.33,30.12,29.96,10,10,7,17,11,21,0.00,2,,31
2011-11-5,50,37,24,25,20,13,88,56,23,30.45,30.38,30.29,10,10,10,14,8,18,0.00,0,,105
2011-11-6,57,45,32,28,23,19,63,44,24,30.43,30.36,30.29,10,10,10,13,7,17,0.00,0,,139
2011-11-7,60,47,34,44,36,27,75,63,50,30.36,30.31,30.27,10,10,10,13,4,17,0.00,3,,230
2011-11-8,68,54,40,42,37,33,89,60,31,30.28,30.21,30.13,10,10,10,13,4,17,0.00,0,,149
2011-11-9,68,55,42,49,36,29,86,57,28,30.13,29.98,29.85,10,10,8,14,7,24,0.08,3,Rain,145
2011-11-10,54,42,29,52,34,25,100,82,64,29.99,29.89,29.82,10,10,6,23,9,32,T,7,Snow,250
2011-11-11,38,33,28,30,27,22,92,76,59,30.01,29.88,29.76,10,8,2,26,13,37,T,7,Snow,258
2011-11-12,55,41,27,34,27,21,75,59,43,30.04,30.00,29.93,10,10,10,23,10,32,0.00,1,,222
2011-11-13,59,53,47,43,32,21,57,45,32,30.00,29.88,29.78,10,10,10,20,11,29,0.00,,,207
2011-11-14,65,58,51,55,52,44,100,79,57,29.85,29.76,29.62,10,7,2,26,11,38,1.05,7,Rain-Thunderstorm,217
2011-11-15,53,51,48,52,49,46,100,93,86,29.94,29.84,29.71,10,10,4,15,8,22,0.30,8,Rain,227
2011-11-16,51,42,33,50,46,26,100,82,64,29.95,29.85,29.80,10,6,1,13,5,17,0.14,7,Rain,233
2011-11-17,36,32,27,27,22,13,85,66,47,30.18,30.02,29.95,10,10,3,26,10,36,T,3,Snow,271
2011-11-18,38,29,20,20,17,14,81,61,40,30.40,30.32,30.21,10,10,10,20,9,25,0.00,2,,217
2011-11-19,53,43,32,33,23,12,56,45,33,30.28,30.20,30.07,10,10,10,20,8,28,0.00,5,,181
2011-11-20,59,52,44,50,46,33,93,69,45,30.18,30.11,30.03,10,10,6,23,12,35,0.06,7,Rain,261
2011-11-21,44,39,34,41,37,33,100,91,82,30.30,30.24,30.19,10,9,4,10,5,14,0.06,6,Rain,56
2011-11-22,46,40,34,46,40,34,100,96,92,30.26,30.03,29.73,10,5,1,22,10,29,1.08,8,Rain,105
2011-11-23,55,43,31,54,41,30,100,88,76,30.18,29.78,29.55,10,8,2,18,11,31,0.11,7,Rain,273
2011-11-24,43,37,31,36,33,30,100,88,76,30.30,30.22,30.14,10,4,0,15,9,18,0.00,6,Fog,248
2011-11-25,55,45,35,37,35,30,100,69,38,30.26,30.21,30.12,10,7,2,15,11,23,0.00,3,,229
2011-11-26,53,47,41,41,38,30,71,59,46,30.22,30.15,30.09,10,10,10,14,6,18,0.00,0,,182
2011-11-27,62,52,42,52,45,35,100,76,52,30.08,29.98,29.92,10,9,3,22,6,30,0.30,6,Rain,169
2011-11-28,61,56,50,52,50,49,96,84,72,30.06,29.99,29.90,10,9,2,13,6,18,0.12,4,Rain,133
2011-11-29,59,48,37,55,47,32,93,80,67,29.88,29.67,29.53,10,9,4,28,10,35,0.35,7,Rain,162
2011-11-30,37,32,27,34,30,25,100,91,82,30.15,29.76,29.56,10,5,1,23,13,30,0.01,8,Snow,260